This is the latest recevied weather packets stored in our database for station/object W0AKY-13. If no packets are shown the sender has not sent any weather packets the latest 1 day(s).
| Time | Temp. | Humidity | Pressure | Rain* | Wind** | Luminosity | Snow |
|---|---|---|---|---|---|---|---|
| 1778044264 | 8.89° C | 61% | 1016.8 hPa | 0 mm | - | 0 W/m² | - |
| 1778043356 | 8.89° C | 60% | 1016.6 hPa | 0 mm | - | 0 W/m² | - |
| 1778042751 | 8.89° C | 58% | 1016.6 hPa | 0 mm | - | 0 W/m² | - |
| 1778042447 | 8.89° C | 55% | 1016.6 hPa | 0 mm | - | 0 W/m² | - |
| 1778042144 | 9.44° C | 54% | 1016.4 hPa | 0 mm | - | 0 W/m² | - |
| 1778041239 | 10° C | 47% | 1016.4 hPa | 0 mm | - | 0 W/m² | - |
| 1778040332 | 10° C | 47% | 1016.1 hPa | 0 mm | - | 0 W/m² | - |
| 1778040027 | 10° C | 45% | 1016 hPa | 0 mm | - | 0 W/m² | - |
| 1778039119 | 10.56° C | 44% | 1015.9 hPa | 0 mm | - | 0 W/m² | - |
| 1778038513 | 10.56° C | 44% | 1016.2 hPa | 0 mm | - | 0 W/m² | - |
| 1778038210 | 10.56° C | 46% | 1015.9 hPa | 0 mm | - | 0 W/m² | - |
| 1778037907 | 10.56° C | 45% | 1015.8 hPa | 0 mm | - | 0 W/m² | - |
| 1778036998 | 10.56° C | 47% | 1015.7 hPa | 0 mm | - | 0 W/m² | - |
| 1778036696 | 10.56° C | 45% | 1015.6 hPa | 0 mm | - | 0 W/m² | - |
| 1778036393 | 10.56° C | 48% | 1015.5 hPa | 0 mm | - | 0 W/m² | - |
| 1778035786 | 10.56° C | 48% | 1015.8 hPa | 0 mm | - | 0 W/m² | - |
| 1778035483 | 10.56° C | 47% | 1015.3 hPa | 0 mm | - | 0 W/m² | - |
| 1778035179 | 10.56° C | 45% | 1015.5 hPa | 0 mm | - | 0 W/m² | - |
| 1778034876 | 10.56° C | 46% | 1015.2 hPa | 0 mm | - | 0 W/m² | - |
| 1778034572 | 10.56° C | 44% | 1015.3 hPa | 0 mm | - | 0 W/m² | - |
| 1778034270 | 10.56° C | 46% | 1015.2 hPa | 0 mm | - | 0 W/m² | - |
| 1778033968 | 10.56° C | 45% | 1015.2 hPa | 0 mm | - | 0 W/m² | - |
| 1778033665 | 10.56° C | 45% | 1014.9 hPa | 0 mm | - | 0 W/m² | - |
| 1778033362 | 11.11° C | 45% | 1014.9 hPa | 0 mm | - | 0 W/m² | - |
| 1778033060 | 11.11° C | 44% | 1014.8 hPa | 0 mm | - | 0 W/m² | - |
* Rain latest hour (hover to see other rain measurements)
** Current wind speed in m/s (hover to see current wind gust speed)